Flag for Argentina

Past Weather in El Calafate, Santa Cruz, Argentina — Yesterday and Last 2 Weeks

Now
43 °F

Clear.


Feels Like: 39 °F
Forecast: 54 / 39 °F
Wind: 6 mph from East

Location: Rio Gallegos Aerodrome
Current Time: Sep 26, 2020 at 12:44:47 am
Latest Report: Sep 26, 2020 at 12:00 am
Visibility: 10 mi
Pressure29.62 "Hg
Humidity: 71%
Dew Point: 34 °F
Location of El CalafateLocation

Past Weather in El Calafate — Graph

°F

El Calafate Temperature Yesterday

Maximum temperature yesterday: 68 °F (at 4:00 pm)
Minimum temperature yesterday: 41 °F (at 5:00 am)
Average temperature yesterday: 52 °F

High & Low Weather Summary for the Past Weeks

 TemperatureHumidityPressure
High68 °F (Sep 25, 4:00 pm)87% (Sep 10, 11:00 pm)30.18 "Hg (Sep 10, 11:00 pm)
Low28 °F (Sep 16, 1:00 am)21% (Sep 15, 3:00 pm)28.65 "Hg (Sep 17, 12:00 am)
Average45 °F56%29.54 "Hg
* Reported Sep 10 11:00 pm — Sep 25 11:00 pm, El Calafate. Weather by CustomWeather, © 2020

Note: Actual official high and low records may vary slightly from our data, if they occured in-between our weather recording intervals... More about our weather records

El Calafate Weather History for the Previous 24 Hours

Scroll right to see more
 ConditionsComfort  
Time TempWeatherWind HumidityBarometerVisibility
11:00 pm
Fri, Sep 25
43 °FClear.12 mph66%29.62 "Hg10 mi
10:00 pm45 °FClear.7 mph61%29.65 "Hg10 mi
8:00 pm54 °FClear.10 mph44%29.62 "Hg10 mi
7:00 pm59 °FSunny.16 mph34%29.59 "Hg10 mi
6:00 pm64 °FPassing clouds.20 mph28%29.56 "HgN/A
5:00 pm66 °FPassing clouds.16 mph24%29.59 "HgN/A
4:00 pm68 °FPassing clouds.20 mph24%29.59 "HgN/A
3:00 pm66 °FPassing clouds.13 mph28%29.59 "HgN/A
2:00 pm64 °FPassing clouds.9 mph30%29.62 "HgN/A
1:00 pm63 °FPassing clouds.13 mph32%29.68 "HgN/A
12:00 pm61 °FSunny.8 mph36%29.68 "Hg10 mi
11:00 am54 °FSunny.5 mph51%29.71 "Hg10 mi
10:00 am50 °FSunny.9 mph50%29.74 "Hg10 mi
9:00 am46 °FSunny.2 mph62%29.74 "Hg10 mi
8:00 am43 °FSunny.10 mph66%29.74 "Hg10 mi
7:00 am41 °FClear.8 mph70%29.77 "Hg10 mi
6:00 am43 °FClear.9 mph71%29.74 "Hg10 mi
5:00 am41 °FClear.3 mph70%29.71 "Hg10 mi
4:00 am45 °FClear.16 mph66%29.71 "Hg10 mi
3:00 am45 °FClear.10 mph57%29.71 "Hg10 mi
2:00 am45 °FClear.12 mph53%29.68 "Hg10 mi
1:00 am45 °FClear.12 mph57%29.65 "Hg10 mi
12:00 am45 °FPassing clouds.16 mph66%29.62 "HgN/A
Weather by CustomWeather, © 2020

See weather overview